Weather History for Worthington, MN

Change the Weather History Date:

Thursday, November 17, 2011

  Actual Average Record
Temperature  
Mean Temperature 24 °F -  
Max Temperature 37 °F 38 °F 66 °F (2001)
Min Temperature 10 °F 23 °F 1 °F (2014)
Degree Days  
Heating Degree Days 42    
Moisture  
Dew Point 5 °F    
Average Humidity 45    
Maximum Humidity 67    
Minimum Humidity 28    
Precipitation  
Precipitation 0.00 in - - ()
Sea Level Pressure  
Sea Level Pressure 30.06 in    
Wind  
Wind Speed 8 mph (SSW)    
Max Wind Speed 18 mph    
Max Gust Speed 22 mph    
Visibility 10 miles    
Events      
Averages and records for this station are not official NWS values.
T = Trace of Precipitation, MM = Missing Value Source: NWS Daily Summary

Daily Weather History Graph

Daily Weather History Graph

Search for Another Location

Airport:

Trip Planner

Search our weather history database for the weather conditions in past years. The results will help you decide how hot, cold, wet, or windy it might be!

Date:

Astronomy

Nov. 17, 2011 Rise Set
Actual Time 7:18 AM CST 4:55 PM CST
Civil Twilight 6:47 AM CST 5:26 PM CST
Nautical Twilight 6:12 AM CST 6:01 PM CST
Astronomical Twilight 5:38 AM CST 6:35 PM CST
Moon 11:21 PM CST (11/17) 12:24 PM CST (11/17)
Length of Visible Light 10h 38m
Length of Day
9h 36m
Waning Gibbous, 59% of the Moon is Illuminated
Nov 17
Waning Gibbous
Nov 18
Last Quarter
Nov 25
New
Dec 2
First Quarter
Dec 10
Full

Hourly Weather History & Observations

Time (CST) Temp. Windchill Dew Point Humidity Pressure Visibility Wind Dir Wind Speed Gust Speed Precip Events Conditions
12:15 AM 15.8 °F 4.2 °F 1.4 °F 53% 30.16 in 10.0 mi WSW 9.2 mph - N/A   Scattered Clouds
12:35 AM 14.0 °F 1.2 °F -0.4 °F 53% 30.16 in 10.0 mi WSW 10.4 mph - N/A   Clear
1:15 AM 12.2 °F 0.7 °F -0.4 °F 57% 30.19 in 10.0 mi WSW 8.1 mph - N/A   Partly Cloudy
1:35 AM 12.2 °F -1.0 °F -0.4 °F 57% 30.19 in 10.0 mi WSW 10.4 mph - N/A   Clear
1:55 AM 12.2 °F -1.0 °F -0.4 °F 57% 30.19 in 10.0 mi WSW 10.4 mph - N/A   Clear
2:15 AM 12.2 °F -1.0 °F -0.4 °F 57% 30.18 in 10.0 mi WSW 10.4 mph - N/A   Clear
2:35 AM 12.2 °F -1.0 °F 1.4 °F 62% 30.18 in 10.0 mi SSW 10.4 mph - N/A   Clear
2:55 AM 10.4 °F -1.5 °F -0.4 °F 62% 30.18 in 10.0 mi West 8.1 mph - N/A   Clear
3:15 AM 10.4 °F 0.8 °F 1.4 °F 67% 30.15 in 10.0 mi WSW 5.8 mph - N/A   Partly Cloudy
3:35 AM 12.2 °F 1.7 °F 1.4 °F 62% 30.15 in 10.0 mi WSW 6.9 mph - N/A   Clear
5:15 AM 12.2 °F -0.2 °F 1.4 °F 62% 30.14 in 10.0 mi SW 9.2 mph - N/A   Clear
5:35 AM 12.2 °F 2.9 °F 3.2 °F 67% 30.14 in 10.0 mi WSW 5.8 mph - N/A   Clear
5:55 AM 10.4 °F 2.2 °F -0.4 °F 62% 30.14 in 10.0 mi West 4.6 mph - N/A   Clear
6:15 AM 12.2 °F 1.7 °F 3.2 °F 67% 30.14 in 10.0 mi SW 6.9 mph - N/A   Clear
6:35 AM 12.2 °F 1.7 °F 1.4 °F 62% 30.13 in 10.0 mi SW 6.9 mph - N/A   Clear
6:55 AM 12.2 °F 2.9 °F 1.4 °F 62% 30.13 in 10.0 mi WSW 5.8 mph - N/A   Clear
7:15 AM 10.4 °F 2.2 °F 1.4 °F 67% 30.13 in 10.0 mi WSW 4.6 mph - N/A   Clear
7:35 AM 12.2 °F 4.3 °F 1.4 °F 62% 30.13 in 10.0 mi WSW 4.6 mph - N/A   Clear
7:55 AM 12.2 °F 4.3 °F 1.4 °F 62% 30.13 in 10.0 mi SW 4.6 mph - N/A   Clear
8:15 AM 14.0 °F 6.5 °F 3.2 °F 62% 30.14 in 10.0 mi SW 4.6 mph - N/A   Clear
8:35 AM 17.6 °F 10.7 °F 5.0 °F 58% 30.15 in 10.0 mi SW 4.6 mph - N/A   Clear
8:55 AM 19.4 °F 14.3 °F 6.8 °F 58% 30.15 in 10.0 mi SW 3.5 mph - N/A   Clear
9:15 AM 24.8 °F - 6.8 °F 46% 30.15 in 10.0 mi Calm Calm - N/A   Clear
9:35 AM 26.6 °F 22.6 °F 6.8 °F 43% 30.14 in 10.0 mi SW 3.5 mph - N/A   Clear
9:55 AM 28.4 °F 24.6 °F 6.8 °F 40% 30.13 in 10.0 mi SSW 3.5 mph - N/A   Clear
10:15 AM 28.4 °F - 6.8 °F 40% 30.16 in 10.0 mi Calm Calm - N/A   Clear
10:35 AM 30.2 °F 25.4 °F 6.8 °F 37% 30.16 in 10.0 mi WSW 4.6 mph - N/A   Clear
10:55 AM 30.2 °F - 6.8 °F 37% 30.14 in 10.0 mi Calm Calm - N/A   Clear
11:15 AM 30.2 °F 25.4 °F 6.8 °F 37% 30.13 in 10.0 mi SSE 4.6 mph - N/A   Clear
11:35 AM 32.0 °F 26.4 °F 8.6 °F 38% 30.11 in 10.0 mi South 5.8 mph - N/A   Clear
11:55 AM 33.8 °F 27.7 °F 8.6 °F 35% 30.09 in 10.0 mi South 6.9 mph - N/A   Clear
12:15 PM 33.8 °F 29.6 °F 8.6 °F 35% 30.09 in 10.0 mi SSW 4.6 mph - N/A   Clear
12:35 PM 33.8 °F 28.6 °F 8.6 °F 35% 30.07 in 10.0 mi SE 5.8 mph - N/A   Clear
12:55 PM 35.6 °F 28.6 °F 8.6 °F 33% 30.06 in 10.0 mi South 9.2 mph - N/A   Clear
1:15 PM 35.6 °F 28.6 °F 8.6 °F 33% 30.05 in 10.0 mi SSE 9.2 mph - N/A   Clear
1:35 PM 35.6 °F 28.0 °F 8.6 °F 33% 30.04 in 10.0 mi SSE 10.4 mph - N/A   Clear
2:15 PM 37.4 °F 29.8 °F 6.8 °F 28% 30.01 in 10.0 mi SSE 11.5 mph - N/A   Clear
2:35 PM 37.4 °F 30.3 °F 8.6 °F 30% 30.00 in 10.0 mi SSE 10.4 mph - N/A   Clear
2:55 PM 37.4 °F 30.8 °F 6.8 °F 28% 29.99 in 10.0 mi SSE 9.2 mph - N/A   Clear
3:15 PM 37.4 °F 29.3 °F 6.8 °F 28% 29.97 in 10.0 mi SE 12.7 mph - N/A   Clear
3:35 PM 37.4 °F 28.9 °F 6.8 °F 28% 29.96 in 10.0 mi SSE 13.8 mph - N/A   Clear
3:55 PM 37.4 °F 29.3 °F 6.8 °F 28% 29.95 in 10.0 mi SSE 12.7 mph 20.7 mph N/A   Clear
4:15 PM 37.4 °F 29.8 °F 6.8 °F 28% 29.94 in 10.0 mi SSE 11.5 mph 17.3 mph N/A   Clear
4:35 PM 35.6 °F 27.5 °F 6.8 °F 30% 29.93 in 10.0 mi SE 11.5 mph - N/A   Clear
4:55 PM 35.6 °F 27.1 °F 6.8 °F 30% 29.91 in 10.0 mi SE 12.7 mph - N/A   Clear
5:15 PM 35.6 °F 27.1 °F 6.8 °F 30% 29.90 in 10.0 mi SE 12.7 mph - N/A   Clear
5:35 PM 33.8 °F 24.8 °F 8.6 °F 35% 29.89 in 10.0 mi SE 12.7 mph - N/A   Clear
5:55 PM 33.8 °F 24.8 °F 6.8 °F 32% 29.88 in 10.0 mi SE 12.7 mph - N/A   Clear
6:15 PM 33.8 °F 25.8 °F 6.8 °F 32% 29.88 in 10.0 mi SE 10.4 mph - N/A   Clear
6:35 PM 32.0 °F 23.0 °F 6.8 °F 35% 29.87 in 10.0 mi SE 11.5 mph - N/A   Clear
6:55 PM 32.0 °F 23.6 °F 8.6 °F 38% 29.86 in 10.0 mi SSE 10.4 mph - N/A   Clear
7:35 PM 35.6 °F 25.9 °F 10.4 °F 35% 29.82 in 10.0 mi SSE 16.1 mph 21.9 mph N/A   Clear
7:55 PM 35.6 °F 26.2 °F 10.4 °F 35% 29.81 in 10.0 mi SSE 15.0 mph 21.9 mph N/A   Clear
8:15 PM 35.6 °F 26.2 °F 10.4 °F 35% 29.80 in 10.0 mi SSE 15.0 mph 20.7 mph N/A   Clear
8:35 PM 35.6 °F 25.2 °F 12.2 °F 38% 29.78 in 10.0 mi SSE 18.4 mph - N/A   Clear
8:55 PM 35.6 °F 25.5 °F 12.2 °F 38% 29.77 in 10.0 mi South 17.3 mph 27.6 mph N/A   Partly Cloudy
9:35 PM 35.6 °F 25.5 °F 12.2 °F 38% 29.76 in 10.0 mi South 17.3 mph - N/A   Overcast
9:55 PM 35.6 °F 25.2 °F 14.0 °F 41% 29.75 in 10.0 mi South 18.4 mph 25.3 mph N/A   Scattered Clouds
10:35 PM 35.6 °F 25.2 °F 17.6 °F 48% 29.72 in 10.0 mi South 18.4 mph 25.3 mph N/A   Clear
10:55 PM 35.6 °F 24.2 °F 17.6 °F 48% 29.71 in 10.0 mi South 21.9 mph - N/A   Clear
11:15 PM 35.6 °F 24.2 °F 17.6 °F 48% 29.70 in 10.0 mi South 21.9 mph 27.6 mph N/A   Clear
11:35 PM 37.4 °F 26.4 °F 17.6 °F 45% 29.69 in 10.0 mi South 23.0 mph 28.8 mph N/A   Clear
11:55 PM 37.4 °F 26.6 °F 19.4 °F 48% 29.68 in 10.0 mi South 21.9 mph 31.1 mph N/A   Clear